Weather in Permas

Russia / Vologda Oblast     59°20′08″N   45°36′19″E
temp.,
°C
wind,
m/s
gust,
m/s
humid.,
%
clouds,
%
prec.,
mm/h
press.,
hPa
HPBL,
m
12 april, mon
mon1200:00−1wnw11964 0.0 103512
03:00−3wnw11956 0.0 103710
06:00−3sse009354 0.0 103813
09:00+6sse236812 0.0 1039358
12:00+9sse23575 0.0 1039693
15:00+10sse34635 0.0 1038755
18:00+7se259182 0.0 1037115
21:00+4sse3994100 0.0 1037172
13 april, tue
tue1300:00+4sse31198100 0.0 1036278
03:00+3sse41095100 0.0 1035387
06:00+4sse41298100 0.0 1033415
09:00+6s41095100 0.0 1032395
12:00+11s4882100 0.0 1030508
15:00+14s41076100 0.0 1028730
18:00+12s41183100 0.0 1027544
21:00+9s31291100 0.0 1027310
14 april, wed
wed1400:00+7s31291100 0.0 1026244
03:00+6ssw3118994 0.0 1026209
06:00+6s31085100 0.0 1026177
09:00+12ssw496496 0.0 1025365
12:00+16ssw595162 0.0 1024778
15:00+17ssw484841 0.0 10221223
18:00+14s395824 0.0 1021300
21:00+10ssw31271100 0.0 1021306
15 april, thu
thu1500:00+8ssw3117883 0.0 1020209
03:00+6ssw2783100 0.0 1020123
06:00+6sw2582100 0.0 1020102
09:00+11wnw1364100 0.0 1020393
12:00+14n336095 0.0 10201084
15:00+9nne5674100 0.0 1022589
18:00+5nne4987100 0.0 1022476
21:00+4nne4991100 1.4 1023638
16 april, fri
fri1600:00+4nne3892100 0.6 1024636
03:00+3nne3787100 0.6 1024433
06:00+1nne3108078 0.0 1025385
09:00+5ne46550 0.0 1026939
12:00+8nne46415 0.0 10261400
15:00+9n46385 0.0 10261647
18:00+7n37475 0.0 1027734
21:00+3nnw27665 0.0 1028132